Time,TemperatureF,DewpointF,PressureIn,WindDirection,WindDirectionDegrees,WindSpeedMPH,WindSpeedGustMPH,Humidity,HourlyPrecipIn,Conditions,Clouds,dailyrainin,SoftwareType,DateUTC
2013-02-03 00:02:00,11.0,5.0,30.18,NNW,337,4.0,6.0,76,-99.99,,,-99.99,,2013-02-03 06:02:00,
2013-02-03 00:11:00,11.0,5.0,30.18,NNW,337,4.0,6.0,76,-99.99,,,-99.99,,2013-02-03 06:11:00,
2013-02-03 00:21:00,11.0,5.0,30.17,NNW,337,0.0,4.0,76,-99.99,,,-99.99,,2013-02-03 06:21:00,
2013-02-03 00:32:00,10.0,4.0,30.17,NNW,337,0.0,3.0,76,-99.99,,,-99.99,,2013-02-03 06:32:00,
2013-02-03 00:41:00,10.0,4.0,30.17,NNW,337,0.0,3.0,76,-99.99,,,-99.99,,2013-02-03 06:41:00,
2013-02-03 00:52:00,10.0,4.0,30.17,NNW,337,0.0,0.0,76,-99.99,,,-99.99,,2013-02-03 06:52:00,
2013-02-03 01:01:00,10.0,4.0,30.17,NNW,337,0.0,0.0,76,-99.99,,,-99.99,,2013-02-03 07:01:00,
2013-02-03 01:11:00,10.0,4.0,30.17,NNW,337,0.0,0.0,76,-99.99,,,-99.99,,2013-02-03 07:11:00,
2013-02-03 01:21:00,10.0,4.0,30.16,NNW,337,0.0,0.0,76,-99.99,,,-99.99,,2013-02-03 07:21:00,
2013-02-03 01:31:00,11.0,5.0,30.16,NNW,337,0.0,0.0,77,-99.99,,,-99.99,,2013-02-03 07:31:00,
2013-02-03 01:41:00,11.0,5.0,30.16,NNW,337,0.0,0.0,77,-99.99,,,-99.99,,2013-02-03 07:41:00,
2013-02-03 01:52:00,11.0,5.0,30.16,NNW,337,0.0,0.0,77,-99.99,,,-99.99,,2013-02-03 07:52:00,
2013-02-03 02:01:00,11.0,5.0,30.16,NNW,337,2.0,5.0,77,-99.99,,,-99.99,,2013-02-03 08:01:00,
2013-02-03 02:11:00,11.0,5.0,30.16,NNW,337,2.0,5.0,77,-99.99,,,-99.99,,2013-02-03 08:11:00,
2013-02-03 02:22:00,11.0,5.0,30.16,NNW,337,2.0,5.0,77,-99.99,,,-99.99,,2013-02-03 08:22:00,
2013-02-03 02:32:00,11.0,5.0,30.15,NNW,337,0.0,4.0,77,-99.99,,,-99.99,,2013-02-03 08:32:00,
2013-02-03 02:41:00,11.0,5.0,30.15,NNW,337,0.0,4.0,77,-99.99,,,-99.99,,2013-02-03 08:41:00,
2013-02-03 02:52:00,11.0,5.0,30.14,NNW,337,4.0,6.0,77,-99.99,,,-99.99,,2013-02-03 08:52:00,
2013-02-03 03:02:00,11.0,5.0,30.14,NNW,337,2.0,4.0,77,-99.99,,,-99.99,,2013-02-03 09:02:00,
2013-02-03 03:11:00,11.0,5.0,30.14,NNW,337,2.0,4.0,77,-99.99,,,-99.99,,2013-02-03 09:11:00,
2013-02-03 03:21:00,11.0,5.0,30.14,NNW,337,0.0,5.0,77,-99.99,,,-99.99,,2013-02-03 09:21:00,
2013-02-03 03:31:00,11.0,5.0,30.14,NNW,337,0.0,0.0,77,-99.99,,,-99.99,,2013-02-03 09:31:00,
2013-02-03 03:41:00,11.0,5.0,30.14,NNW,337,0.0,0.0,77,-99.99,,,-99.99,,2013-02-03 09:41:00,
2013-02-03 03:51:00,11.0,5.0,30.14,NNW,337,0.0,0.0,77,-99.99,,,-99.99,,2013-02-03 09:51:00,
2013-02-03 04:01:00,11.0,5.0,30.15,NNW,337,0.0,0.0,77,-99.99,,,-99.99,,2013-02-03 10:01:00,
2013-02-03 04:11:00,11.0,5.0,30.14,NNW,337,0.0,0.0,77,-99.99,,,-99.99,,2013-02-03 10:11:00,
2013-02-03 04:21:00,11.0,5.0,30.14,NNW,337,0.0,0.0,77,-99.99,,,-99.99,,2013-02-03 10:21:00,
2013-02-03 04:31:00,11.0,5.0,30.15,NNW,337,0.0,0.0,77,-99.99,,,-99.99,,2013-02-03 10:31:00,
2013-02-03 04:42:00,11.0,5.0,30.15,NNW,337,0.0,0.0,77,-99.99,,,-99.99,,2013-02-03 10:42:00,
2013-02-03 04:52:00,11.0,5.0,30.15,NNW,337,0.0,0.0,77,-99.99,,,-99.99,,2013-02-03 10:52:00,
2013-02-03 05:02:00,11.0,5.0,30.15,NNW,337,0.0,0.0,77,-99.99,,,-99.99,,2013-02-03 11:02:00,
2013-02-03 05:11:00,11.0,5.0,30.15,NNW,337,0.0,0.0,77,-99.99,,,-99.99,,2013-02-03 11:11:00,
2013-02-03 05:22:00,12.0,6.0,30.16,NNW,337,2.0,9.0,78,-99.99,,,-99.99,,2013-02-03 11:22:00,
2013-02-03 05:32:00,12.0,6.0,30.16,NNW,337,7.0,15.0,78,-99.99,,,-99.99,,2013-02-03 11:32:00,
2013-02-03 05:41:00,12.0,6.0,30.16,NNW,337,7.0,15.0,78,-99.99,,,-99.99,,2013-02-03 11:41:00,
2013-02-03 05:52:00,13.0,7.0,30.16,NW,324,8.0,18.0,78,-99.99,,,-99.99,,2013-02-03 11:52:00,
2013-02-03 06:02:00,13.0,7.0,30.17,NNW,336,9.0,17.0,77,-99.99,,,-99.99,,2013-02-03 12:02:00,
2013-02-03 06:11:00,13.0,7.0,30.17,NNW,336,9.0,17.0,77,-99.99,,,-99.99,,2013-02-03 12:11:00,
2013-02-03 06:22:00,13.0,7.0,30.17,NW,322,12.0,20.0,77,-99.99,,,-99.99,,2013-02-03 12:22:00,
2013-02-03 06:32:00,12.0,6.0,30.17,NW,318,13.0,20.0,76,-99.99,,,-99.99,,2013-02-03 12:32:00,
2013-02-03 06:42:00,12.0,6.0,30.17,NW,318,13.0,20.0,76,-99.99,,,-99.99,,2013-02-03 12:42:00,
2013-02-03 06:53:00,12.0,6.0,30.19,NW,313,11.0,21.0,75,-99.99,,,-99.99,,2013-02-03 12:53:00,
2013-02-03 07:03:00,12.0,6.0,30.19,NNW,329,11.0,19.0,75,-99.99,,,-99.99,,2013-02-03 13:03:00,
2013-02-03 07:11:00,12.0,6.0,30.19,NNW,329,11.0,19.0,75,-99.99,,,-99.99,,2013-02-03 13:11:00,
2013-02-03 07:21:00,12.0,6.0,30.19,NNW,329,11.0,19.0,75,-99.99,,,-99.99,,2013-02-03 13:21:00,
2013-02-03 07:32:00,11.0,4.0,30.21,NW,323,9.0,19.0,74,-99.99,,,-99.99,,2013-02-03 13:32:00,
2013-02-03 07:42:00,11.0,4.0,30.21,NW,323,9.0,19.0,74,-99.99,,,-99.99,,2013-02-03 13:42:00,
2013-02-03 07:52:00,11.0,4.0,30.22,NNW,330,10.0,18.0,74,-99.99,,,-99.99,,2013-02-03 13:52:00,
2013-02-03 08:02:00,11.0,4.0,30.22,NW,319,12.0,24.0,73,-99.99,,,-99.99,,2013-02-03 14:02:00,
2013-02-03 08:11:00,11.0,4.0,30.22,NW,319,12.0,24.0,73,-99.99,,,-99.99,,2013-02-03 14:11:00,
2013-02-03 08:21:00,11.0,4.0,30.22,NW,319,12.0,24.0,73,-99.99,,,-99.99,,2013-02-03 14:21:00,
2013-02-03 08:32:00,11.0,4.0,30.23,NW,320,10.0,16.0,72,-99.99,,,-99.99,,2013-02-03 14:32:00,
2013-02-03 08:42:00,11.0,4.0,30.23,NW,320,10.0,16.0,72,-99.99,,,-99.99,,2013-02-03 14:42:00,
2013-02-03 08:52:00,10.0,3.0,30.23,NW,323,8.0,12.0,72,-99.99,,,-99.99,,2013-02-03 14:52:00,
2013-02-03 09:03:00,10.0,3.0,30.23,NW,317,9.0,13.0,72,-99.99,,,-99.99,,2013-02-03 15:03:00,
2013-02-03 09:11:00,10.0,3.0,30.22,NW,312,9.0,15.0,71,-99.99,,,-99.99,,2013-02-03 15:11:00,
2013-02-03 09:22:00,10.0,3.0,30.22,NW,312,9.0,15.0,71,-99.99,,,-99.99,,2013-02-03 15:22:00,
2013-02-03 09:33:00,11.0,3.0,30.23,NW,321,9.0,24.0,71,-99.99,,,-99.99,,2013-02-03 15:33:00,
2013-02-03 09:41:00,11.0,3.0,30.23,NW,321,9.0,24.0,71,-99.99,,,-99.99,,2013-02-03 15:41:00,
2013-02-03 09:51:00,12.0,4.0,30.23,NW,317,8.0,17.0,70,-99.99,,,-99.99,,2013-02-03 15:51:00,
2013-02-03 10:02:00,12.0,4.0,30.25,NW,324,11.0,17.0,69,-99.99,,,-99.99,,2013-02-03 16:02:00,
2013-02-03 10:11:00,12.0,4.0,30.25,NW,324,11.0,17.0,69,-99.99,,,-99.99,,2013-02-03 16:11:00,
2013-02-03 10:22:00,14.0,5.0,30.26,NNW,327,10.0,15.0,68,-99.99,,,-99.99,,2013-02-03 16:22:00,
2013-02-03 10:32:00,15.0,6.0,30.25,NNW,330,9.0,17.0,66,-99.99,,,-99.99,,2013-02-03 16:32:00,
2013-02-03 10:41:00,15.0,6.0,30.25,NNW,330,9.0,17.0,66,-99.99,,,-99.99,,2013-02-03 16:41:00,
2013-02-03 10:52:00,15.0,6.0,30.25,NW,318,7.0,17.0,66,-99.99,,,-99.99,,2013-02-03 16:52:00,
2013-02-03 11:02:00,15.0,5.0,30.25,NNW,340,5.0,11.0,65,-99.99,,,-99.99,,2013-02-03 17:02:00,
2013-02-03 11:11:00,15.0,5.0,30.25,NNW,340,5.0,11.0,65,-99.99,,,-99.99,,2013-02-03 17:11:00,
2013-02-03 11:21:00,15.0,5.0,30.24,NNW,328,8.0,11.0,64,-99.99,,,-99.99,,2013-02-03 17:21:00,
2013-02-03 11:32:00,15.0,5.0,30.24,NW,321,9.0,13.0,64,-99.99,,,-99.99,,2013-02-03 17:32:00,
2013-02-03 11:42:00,15.0,5.0,30.24,NW,321,9.0,13.0,64,-99.99,,,-99.99,,2013-02-03 17:42:00,
2013-02-03 11:52:00,16.0,6.0,30.25,NNW,334,6.0,12.0,63,-99.99,,,-99.99,,2013-02-03 17:52:00,
2013-02-03 12:03:00,17.0,7.0,30.24,NNW,330,6.0,10.0,63,-99.99,,,-99.99,,2013-02-03 18:03:00,
2013-02-03 12:11:00,17.0,7.0,30.24,NNW,330,6.0,10.0,63,-99.99,,,-99.99,,2013-02-03 18:11:00,
2013-02-03 12:23:00,17.0,6.0,30.23,NW,324,4.0,10.0,61,-99.99,,,-99.99,,2013-02-03 18:23:00,
2013-02-03 12:32:00,18.0,6.0,30.23,NNW,336,7.0,10.0,60,-99.99,,,-99.99,,2013-02-03 18:32:00,
2013-02-03 12:42:00,18.0,6.0,30.23,NNW,336,7.0,10.0,60,-99.99,,,-99.99,,2013-02-03 18:42:00,
2013-02-03 12:51:00,18.0,6.0,30.23,NW,322,5.0,11.0,59,-99.99,,,-99.99,,2013-02-03 18:51:00,
2013-02-03 13:02:00,19.0,7.0,30.22,NW,316,7.0,12.0,58,-99.99,,,-99.99,,2013-02-03 19:02:00,
2013-02-03 13:11:00,19.0,7.0,30.22,NW,316,7.0,12.0,58,-99.99,,,-99.99,,2013-02-03 19:11:00,
2013-02-03 13:22:00,19.0,6.0,30.23,West,277,6.0,13.0,56,-99.99,,,-99.99,,2013-02-03 19:22:00,
2013-02-03 13:32:00,19.0,6.0,30.23,WNW,289,7.0,11.0,56,-99.99,,,-99.99,,2013-02-03 19:32:00,
2013-02-03 13:41:00,19.0,6.0,30.23,WNW,289,7.0,11.0,56,-99.99,,,-99.99,,2013-02-03 19:41:00,
2013-02-03 13:51:00,18.0,5.0,30.22,WNW,296,6.0,11.0,55,-99.99,,,-99.99,,2013-02-03 19:51:00,
2013-02-03 14:01:00,18.0,5.0,30.22,WNW,291,5.0,10.0,56,-99.99,,,-99.99,,2013-02-03 20:01:00,
2013-02-03 14:12:00,18.0,5.0,30.22,WNW,291,5.0,10.0,56,-99.99,,,-99.99,,2013-02-03 20:12:00,
2013-02-03 14:21:00,18.0,5.0,30.22,WNW,292,5.0,9.0,56,-99.99,,,-99.99,,2013-02-03 20:21:00,
2013-02-03 14:32:00,18.0,5.0,30.22,WNW,296,7.0,11.0,56,-99.99,,,-99.99,,2013-02-03 20:32:00,
2013-02-03 14:42:00,18.0,5.0,30.22,WNW,296,7.0,11.0,56,-99.99,,,-99.99,,2013-02-03 20:42:00,
2013-02-03 14:52:00,19.0,6.0,30.22,West,270,4.0,8.0,56,-99.99,,,-99.99,,2013-02-03 20:52:00,
2013-02-03 15:03:00,18.0,5.0,30.21,WNW,293,5.0,11.0,56,-99.99,,,-99.99,,2013-02-03 21:03:00,
2013-02-03 15:11:00,18.0,5.0,30.21,WNW,293,5.0,11.0,56,-99.99,,,-99.99,,2013-02-03 21:11:00,
2013-02-03 15:21:00,17.0,4.0,30.22,West,270,5.0,10.0,57,-99.99,,,-99.99,,2013-02-03 21:21:00,
2013-02-03 15:32:00,17.0,4.0,30.21,WSW,258,5.0,8.0,57,-99.99,,,-99.99,,2013-02-03 21:32:00,
2013-02-03 15:42:00,17.0,4.0,30.21,WSW,258,5.0,8.0,57,-99.99,,,-99.99,,2013-02-03 21:42:00,
2013-02-03 15:51:00,18.0,5.0,30.21,West,275,5.0,10.0,56,-99.99,,,-99.99,,2013-02-03 21:51:00,
2013-02-03 16:01:00,17.0,4.0,30.20,NW,309,7.0,15.0,57,-99.99,,,-99.99,,2013-02-03 22:01:00,
2013-02-03 16:11:00,17.0,4.0,30.20,NW,309,7.0,15.0,57,-99.99,,,-99.99,,2013-02-03 22:11:00,
2013-02-03 16:21:00,17.0,5.0,30.20,West,277,2.0,11.0,58,-99.99,,,-99.99,,2013-02-03 22:21:00,
2013-02-03 16:32:00,17.0,5.0,30.20,WNW,291,5.0,9.0,59,-99.99,,,-99.99,,2013-02-03 22:32:00,
2013-02-03 16:41:00,17.0,5.0,30.20,WNW,291,5.0,9.0,59,-99.99,,,-99.99,,2013-02-03 22:41:00,
2013-02-03 16:51:00,16.0,5.0,30.19,West,273,4.0,8.0,61,-99.99,,,-99.99,,2013-02-03 22:51:00,
2013-02-03 17:01:00,16.0,5.0,30.19,West,272,4.0,9.0,62,-99.99,,,-99.99,,2013-02-03 23:01:00,
2013-02-03 17:12:00,16.0,5.0,30.19,West,272,4.0,9.0,62,-99.99,,,-99.99,,2013-02-03 23:12:00,
2013-02-03 17:22:00,15.0,5.0,30.19,WNW,283,4.0,6.0,63,-99.99,,,-99.99,,2013-02-03 23:22:00,
2013-02-03 17:32:00,15.0,5.0,30.19,WNW,285,4.0,8.0,64,-99.99,,,-99.99,,2013-02-03 23:32:00,
2013-02-03 17:41:00,15.0,5.0,30.19,WNW,285,4.0,8.0,64,-99.99,,,-99.99,,2013-02-03 23:41:00,
2013-02-03 17:52:00,15.0,5.0,30.19,WNW,292,3.0,6.0,65,-99.99,,,-99.99,,2013-02-03 23:52:00,
2013-02-03 18:01:00,15.0,6.0,30.19,West,270,2.0,7.0,66,-99.99,,,-99.99,,2013-02-04 00:01:00,
2013-02-03 18:11:00,15.0,6.0,30.19,West,270,2.0,7.0,66,-99.99,,,-99.99,,2013-02-04 00:11:00,
2013-02-03 18:22:00,14.0,6.0,30.20,NW,311,3.0,6.0,69,-99.99,,,-99.99,,2013-02-04 00:22:00,
2013-02-03 18:32:00,14.0,6.0,30.20,NW,316,4.0,8.0,71,-99.99,,,-99.99,,2013-02-04 00:32:00,
2013-02-03 18:41:00,14.0,6.0,30.20,NW,316,4.0,8.0,71,-99.99,,,-99.99,,2013-02-04 00:41:00,
2013-02-03 18:51:00,14.0,7.0,30.20,NNW,337,3.0,7.0,72,-99.99,,,-99.99,,2013-02-04 00:51:00,
2013-02-03 19:01:00,14.0,7.0,30.19,NNW,337,0.0,2.0,72,-99.99,,,-99.99,,2013-02-04 01:01:00,
2013-02-03 19:11:00,14.0,7.0,30.20,NNW,337,0.0,0.0,73,-99.99,,,-99.99,,2013-02-04 01:11:00,
2013-02-03 19:21:00,14.0,7.0,30.20,NNW,337,0.0,0.0,73,-99.99,,,-99.99,,2013-02-04 01:21:00,
2013-02-03 19:31:00,14.0,7.0,30.20,NNW,337,0.0,1.0,73,-99.99,,,-99.99,,2013-02-04 01:31:00,
2013-02-03 19:41:00,14.0,7.0,30.20,NNW,337,0.0,1.0,73,-99.99,,,-99.99,,2013-02-04 01:41:00,
2013-02-03 19:52:00,14.0,7.0,30.20,NNW,337,0.0,1.0,73,-99.99,,,-99.99,,2013-02-04 01:52:00,
2013-02-03 20:02:00,14.0,7.0,30.20,North,0,0.0,0.0,74,-99.99,,,-99.99,,2013-02-04 02:02:00,
2013-02-03 20:11:00,14.0,7.0,30.20,North,0,0.0,0.0,74,-99.99,,,-99.99,,2013-02-04 02:11:00,
2013-02-03 20:21:00,14.0,7.0,30.20,NNE,22,0.0,0.0,74,-99.99,,,-99.99,,2013-02-04 02:21:00,
2013-02-03 20:31:00,14.0,8.0,30.20,East,90,0.0,0.0,75,-99.99,,,-99.99,,2013-02-04 02:31:00,
2013-02-03 20:41:00,14.0,8.0,30.20,East,90,0.0,0.0,75,-99.99,,,-99.99,,2013-02-04 02:41:00,
2013-02-03 20:52:00,14.0,8.0,30.19,NE,45,0.0,0.0,75,-99.99,,,-99.99,,2013-02-04 02:52:00,
2013-02-03 21:02:00,14.0,8.0,30.19,NE,45,0.0,0.0,75,-99.99,,,-99.99,,2013-02-04 03:02:00,
2013-02-03 21:11:00,14.0,8.0,30.19,NE,45,0.0,0.0,76,-99.99,,,-99.99,,2013-02-04 03:11:00,
2013-02-03 21:21:00,14.0,8.0,30.19,NE,45,0.0,0.0,76,-99.99,,,-99.99,,2013-02-04 03:21:00,
2013-02-03 21:32:00,14.0,8.0,30.19,NE,45,0.0,0.0,76,-99.99,,,-99.99,,2013-02-04 03:32:00,
2013-02-03 21:41:00,14.0,8.0,30.19,NE,45,0.0,0.0,76,-99.99,,,-99.99,,2013-02-04 03:41:00,
2013-02-03 21:51:00,14.0,8.0,30.19,NE,45,0.0,0.0,76,-99.99,,,-99.99,,2013-02-04 03:51:00,
2013-02-03 22:01:00,14.0,8.0,30.19,NE,45,0.0,0.0,76,-99.99,,,-99.99,,2013-02-04 04:01:00,
2013-02-03 22:11:00,14.0,8.0,30.19,NE,45,0.0,0.0,76,-99.99,,,-99.99,,2013-02-04 04:11:00,
2013-02-03 22:21:00,14.0,8.0,30.19,NE,45,0.0,0.0,76,-99.99,,,-99.99,,2013-02-04 04:21:00,
2013-02-03 22:32:00,14.0,8.0,30.18,ESE,112,0.0,0.0,77,-99.99,,,-99.99,,2013-02-04 04:32:00,
2013-02-03 22:41:00,14.0,8.0,30.18,ESE,112,0.0,0.0,77,-99.99,,,-99.99,,2013-02-04 04:41:00,
2013-02-03 22:52:00,14.0,8.0,30.18,ENE,67,0.0,0.0,77,-99.99,,,-99.99,,2013-02-04 04:52:00,
2013-02-03 23:03:00,14.0,8.0,30.17,ENE,67,0.0,0.0,77,-99.99,,,-99.99,,2013-02-04 05:03:00,
2013-02-03 23:11:00,14.0,8.0,30.17,ENE,67,0.0,0.0,77,-99.99,,,-99.99,,2013-02-04 05:11:00,
2013-02-03 23:22:00,14.0,8.0,30.17,ENE,67,0.0,0.0,78,-99.99,,,-99.99,,2013-02-04 05:22:00,
2013-02-03 23:33:00,14.0,8.0,30.17,ENE,67,0.0,0.0,78,-99.99,,,-99.99,,2013-02-04 05:33:00,
2013-02-03 23:42:00,14.0,8.0,30.17,ENE,67,0.0,0.0,78,-99.99,,,-99.99,,2013-02-04 05:42:00,
2013-02-03 23:52:00,14.0,8.0,30.16,ENE,67,0.0,0.0,78,-99.99,,,-99.99,,2013-02-04 05:52:00,